FW7777 Weather Reports


Display with metric or nautical units.
time (UTC)temp
F
wind
direction
speed
MPH
gust
MPH
rain 1hr
in
rain 24hr
in
rain mn
in
humidity
%
barometer
mb
20260503211905 45 0.0 0.0 0.00 0.00 0.00 100 1016.8
20260503211406 45 0.0 0.0 0.00 0.00 0.00 100 1016.7
20260503210904 45 0.0 0.0 0.00 0.00 0.00 100 1016.8
20260503210404 45 0.0 0.0 0.00 0.00 0.00 100 1016.7
20260503205909 45 0.0 0.0 0.00 0.00 0.00 100 1016.7
20260503204909 46 0.0 0.0 0.00 0.00 0.00 100 1016.7
20260503203904 46 0.0 0.0 0.00 0.00 0.00 100 1016.7
20260503203405 46 0.0 0.0 0.00 0.00 0.00 100 1016.8
20260503202905 46 0.0 0.0 0.00 0.00 0.00 100 1016.9
20260503202404 46 0.0 0.0 0.00 0.00 0.00 100 1016.9
20260503201909 46 0.0 0.0 0.00 0.00 0.00 100 1016.9
20260503200904 46 0.0 0.0 0.00 0.00 0.00 100 1017.0
20260503200405 46 0.0 0.0 0.00 0.00 0.00 100 1017.1
20260503195904 47 0.0 0.0 0.00 0.00 0.00 100 1017.2
20260503195405 47 0.0 0.0 0.00 0.00 0.00 100 1017.1
20260503194905 47 0.0 0.0 0.00 0.00 0.00 100 1017.1
20260503194404 47 0.0 0.0 0.00 0.00 0.00 100 1017.3
20260503193905 47 0.0 0.0 0.00 0.00 0.00 100 1017.3
20260503193406 47 0.0 0.0 0.00 0.00 0.00 100 1017.2
20260503192906 47 0.0 0.0 0.00 0.00 0.00 100 1017.3
20260503192405 46 0.0 0.0 0.00 0.00 0.00 100 1017.2
20260503191905 47 0.0 0.0 0.00 0.00 0.00 100 1017.2
20260503191409 47 0.0 0.0 0.00 0.00 0.00 100 1017.2
20260503190405 47 0.0 0.0 0.00 0.00 0.00 100 1017.1
20260503185909 47 0.0 0.0 0.00 0.00 0.00 100 1017.1
20260503184905 47 0.0 0.0 0.00 0.00 0.00 100 1017.0
20260503184406 48 0.0 0.0 0.00 0.00 0.00 100 1016.9
20260503183905 48 0.0 0.0 0.00 0.00 0.00 100 1016.9
20260503183410 48 0.0 0.0 0.00 0.00 0.00 100 1017.0
20260503182405 48 0.0 0.0 0.00 0.00 0.00 100 1016.8
20260503181905 48 0.0 0.0 0.00 0.00 0.00 100 1016.9
20260503181405 49 0.0 0.0 0.00 0.00 0.00 100 1016.8
20260503180904 49 0.0 0.0 0.00 0.00 0.00 100 1016.7
20260503180403 49 0.0 0.0 0.00 0.00 0.00 100 1016.7
20260503175904 49 0.0 0.0 0.00 0.00 0.00 100 1016.7
20260503175408 50 0.0 0.0 0.00 0.00 0.00 100 1016.7
20260503174406 50 0.0 0.0 0.00 0.00 0.00 100 1016.8
20260503173907 51 0.0 0.0 0.00 0.00 0.00 100 1016.8
20260503173409 51 0.0 0.0 0.00 0.00 0.00 100 1016.7
20260503172404 52 0.0 0.0 0.00 0.00 0.00 100 1016.6
20260503171904 53 0.0 0.0 0.00 0.00 0.00 100 1016.6
20260503171405 53 0.0 0.0 0.00 0.00 0.00 100 1016.7
20260503170905 54 0.0 0.0 0.00 0.00 0.00 100 1016.6
20260503170404 55 0.0 0.0 0.00 0.00 0.00 100 1016.6
20260503150905 78 0.0 0.0 0.00 0.00 0.00 100 1015.9
20260503150404 70 0.0 0.0 0.00 0.00 0.00 100 1016.2
20260503130904 63 0.0 0.0 0.00 0.00 0.00 100 1017.6
20260503130404 61 0.0 0.0 0.00 0.00 0.00 100 1017.8
20260503110405 62 0.0 0.0 0.00 0.00 0.00 100 1018.3
20260503090404 59 0.0 0.0 0.00 0.00 0.00 100 1019.1
20260503081409 58 0.0 0.0 0.00 0.00 0.00 100 1019.2
20260503080405 55 0.0 0.0 0.00 0.00 0.00 100 1019.4
20260503072904 55 0.0 0.0 0.00 0.00 0.00 100 1019.4
20260503072405 53 0.0 0.0 0.00 0.00 0.00 100 1019.5
20260503071908 53 0.0 0.0 0.00 0.00 0.00 100 1019.6
20260503071412 51 0.0 0.0 0.00 0.00 0.00 100 1019.6
20260503054905 50 0.0 0.0 0.00 0.00 0.00 100 1019.3
20260503054405 50 0.0 0.0 0.00 0.00 0.00 100 1019.3
20260503053909 51 0.0 0.0 0.00 0.00 0.00 100 1019.2
20260503052904 49 0.0 0.0 0.00 0.00 0.00 100 1019.3
20260503052404 49 0.0 0.0 0.00 0.00 0.00 100 1019.3
20260503051904 49 0.0 0.0 0.00 0.00 0.00 100 1019.3
20260503051405 49 0.0 0.0 0.00 0.00 0.00 100 1019.3
20260503050909 47 0.0 0.0 0.00 0.00 0.00 100 1019.4
20260503045905 47 0.0 0.0 0.00 0.00 0.00 100 1019.3
20260503045404 47 0.0 0.0 0.00 0.00 0.00 100 1019.3
20260503044905 47 0.0 0.0 0.00 0.00 0.00 100 1019.2
20260503044405 47 0.0 0.0 0.00 0.00 0.00 100 1019.2
20260503043904 47 0.0 0.0 0.00 0.00 0.00 100 1019.2
20260503043405 47 0.0 0.0 0.00 0.00 0.00 100 1019.1
20260503042904 47 0.0 0.0 0.00 0.00 0.00 100 1019.2
20260503042404 46 0.0 0.0 0.00 0.00 0.00 100 1019.0
20260503041909 46 0.0 0.0 0.00 0.00 0.00 100 1019.0
20260503040905 45 0.0 0.0 0.00 0.00 0.00 100 1019.0
20260503040409 45 0.0 0.0 0.00 0.00 0.00 100 1018.9
20260503035404 44 0.0 0.0 0.00 0.00 0.00 100 1018.8
20260503034906 44 0.0 0.0 0.00 0.00 0.00 100 1018.8
20260503034405 44 0.0 0.0 0.00 0.00 0.00 100 1018.8
20260503033904 44 0.0 0.0 0.00 0.00 0.00 100 1018.7
20260503033408 44 0.0 0.0 0.00 0.00 0.00 100 1018.6
20260503032405 44 0.0 0.0 0.00 0.00 0.00 100 1018.6
20260503031905 44 0.0 0.0 0.00 0.00 0.00 100 1018.5
20260503031410 44 0.0 0.0 0.00 0.00 0.00 100 1018.5
20260503030405 44 0.0 0.0 0.00 0.00 0.00 100 1018.5
20260503025904 44 0.0 0.0 0.00 0.00 0.00 100 1018.5
20260503025404 44 0.0 0.0 0.00 0.00 0.00 100 1018.4
20260503024904 44 0.0 0.0 0.00 0.00 0.00 100 1018.5
20260503024405 44 0.0 0.0 0.00 0.00 0.00 100 1018.5
20260503023904 44 0.0 0.0 0.00 0.00 0.00 100 1018.4
20260503023404 44 0.0 0.0 0.00 0.00 0.00 100 1018.4
20260503022905 43 0.0 0.0 0.00 0.00 0.00 100 1018.4
20260503022404 43 0.0 0.0 0.00 0.00 0.00 100 1018.4
20260503021904 43 0.0 0.0 0.00 0.00 0.00 100 1018.4
20260503021409 43 0.0 0.0 0.00 0.00 0.00 100 1018.3
20260503020404 43 0.0 0.0 0.00 0.00 0.00 100 1018.3
20260503015905 43 0.0 0.0 0.00 0.00 0.00 100 1018.3
20260503015404 43 0.0 0.0 0.00 0.00 0.00 100 1018.3
20260503014906 43 0.0 0.0 0.00 0.00 0.00 100 1018.4
20260503014407 43 0.0 0.0 0.00 0.00 0.00 100 1018.3
20260503013906 43 0.0 0.0 0.00 0.00 0.00 100 1018.3
20260503013404 43 0.0 0.0 0.00 0.00 0.00 100 1018.3
20260503012905 43 0.0 0.0 0.00 0.00 0.00 100 1018.3
20260503012404 43 0.0 0.0 0.00 0.00 0.00 100 1018.4
20260503011905 44 0.0 0.0 0.00 0.00 0.00 100 1018.3
20260503011404 44 0.0 0.0 0.00 0.00 0.00 100 1018.3
20260503010904 44 0.0 0.0 0.00 0.00 0.00 100 1018.2
20260503010404 44 0.0 0.0 0.00 0.00 0.00 100 1018.1
20260503005904 44 0.0 0.0 0.00 0.00 0.00 100 1018.2
20260503005404 44 0.0 0.0 0.00 0.00 0.00 100 1018.3
20260503004906 44 0.0 0.0 0.00 0.00 0.00 100 1018.1
20260503004405 44 0.0 0.0 0.00 0.00 0.00 100 1018.2
20260503003905 44 0.0 0.0 0.00 0.00 0.00 100 1018.2
20260503003405 44 0.0 0.0 0.00 0.00 0.00 100 1018.3
20260503002904 44 0.0 0.0 0.00 0.00 0.00 100 1018.4
20260503002403 44 0.0 0.0 0.00 0.00 0.00 100 1018.3
20260503001909 44 0.0 0.0 0.00 0.00 0.00 100 1018.4
20260503000404 45 0.0 0.0 0.00 0.00 0.00 100 1018.3
20260502235909 45 0.0 0.0 0.00 0.00 0.00 100 1018.2
20260502234904 46 0.0 0.0 0.00 0.00 0.00 100 1018.2
20260502234404 46 0.0 0.0 0.00 0.00 0.00 100 1018.2
20260502233906 46 0.0 0.0 0.00 0.00 0.00 100 1018.3
20260502233405 46 0.0 0.0 0.00 0.00 0.00 100 1018.3
20260502232904 46 0.0 0.0 0.00 0.00 0.00 100 1018.3
20260502232409 46 0.0 0.0 0.00 0.00 0.00 100 1018.3
20260502231404 46 0.0 0.0 0.00 0.00 0.00 100 1018.4
20260502230909 46 0.0 0.0 0.00 0.00 0.00 100 1018.3
20260502225906 46 0.0 0.0 0.00 0.00 0.00 100 1018.6
20260502225411 46 0.0 0.0 0.00 0.00 0.00 100 1018.7
20260502224404 46 0.0 0.0 0.00 0.00 0.00 100 1018.7
20260502223903 46 0.0 0.0 0.00 0.00 0.00 100 1018.7
20260502223404 46 0.0 0.0 0.00 0.00 0.00 100 1018.7
20260502222910 46 0.0 0.0 0.00 0.00 0.00 100 1018.8
20260502221905 46 0.0 0.0 0.00 0.00 0.00 100 1018.8
20260502221404 46 0.0 0.0 0.00 0.00 0.00 100 1018.8
20260502220904 46 0.0 0.0 0.00 0.00 0.00 100 1018.7
20260502220404 46 0.0 0.0 0.00 0.00 0.00 100 1018.5
20260502215904 47 0.0 0.0 0.00 0.00 0.00 100 1018.6
20260502215404 46 0.0 0.0 0.00 0.00 0.00 100 1018.4
20260502214905 47 0.0 0.0 0.00 0.00 0.00 100 1018.5
20260502214405 46 0.0 0.0 0.00 0.00 0.00 100 1018.6
20260502213905 46 0.0 0.0 0.00 0.00 0.00 100 1018.6
20260502213405 46 0.0 0.0 0.00 0.00 0.00 100 1018.5
20260502212904 47 0.0 0.0 0.00 0.00 0.00 100 1018.7
20260502212404 47 0.0 0.0 0.00 0.00 0.00 100 1018.8